START_TIME,STEP,MOV.,M34,t_acc.,L5,t_acc.,L18,t_acc.,L14,t_acc.
1979-07-30 06:00:23.760 ,0,1,0.,12.0,0.,12.0,0.,12.0,0.,12.0
1979-07-30 06:00:35.760 ,0,1,0.,12.0,0.,12.0,0.,12.0,0.,12.0
1979-07-30 06:00:47.760 ,3,1,0.,12.0,0.,12.0,0.,12.0,0.,12.0
1979-07-30 06:00:59.760 ,3,1,0.,12.0,0.,12.0,0.,12.0,0.,12.0
1979-07-30 06:01:11.760 ,7,1,0.,12.0,0.,12.0,0.,12.0,0.,12.0
1979-07-30 06:01:23.760 ,7,1,0.,12.0,0.,12.0,0.,12.0,0.,12.0
1979-07-30 06:01:35.760 ,4,1,0.,12.0,0.,12.0,0.,12.0,0.,12.0
1979-07-30 06:01:47.760 ,4,1,0.,12.0,0.,12.0,0.,12.0,0.,12.0
1979-07-30 06:01:59.760 ,0,1,0.,12.0,0.,12.0,0.,12.0,0.,12.0
1979-07-30 06:02:11.760 ,0,1,0.,12.0,0.,12.0,0.,12.0,0.,12.0
1979-07-30 06:02:23.760 ,3,1,0.,12.0,0.,12.0,0.,12.0,0.,12.0
1979-07-30 06:02:35.760 ,3,1,0.,12.0,0.,12.0,0.,12.0,0.,12.0
1979-07-30 06:02:47.760 ,7,1,0.,12.0,0.,12.0,0.,12.0,0.,12.0
1979-07-30 06:02:59.760 ,7,1,0.,12.0,0.,12.0,0.,12.0,0.,12.0
1979-07-30 06:03:11.760 ,4,1,0.,12.0,0.,12.0,0.,12.0,0.,12.0
1979-07-30 06:03:23.760 ,4,1,0.,12.0,0.,12.0,0.,12.0,0.,12.0
1979-07-30 06:03:35.760 ,0,1,0.,12.0,0.,12.0,0.,12.0,0.,12.0
1979-07-30 06:03:47.760 ,0,1,0.,12.0,0.,12.0,0.,12.0,0.,12.0
1979-07-30 06:03:59.760 ,3,1,0.,12.0,0.,12.0,0.,12.0,0.,12.0
1979-07-30 06:04:11.760 ,3,1,0.,12.0,0.,12.0,0.,12.0,0.,12.0
1979-07-30 06:04:23.760 ,7,1,0.,12.0,0.,12.0,0.,12.0,0.,12.0
1979-07-30 06:04:35.760 ,7,1,0.,12.0,0.,12.0,0.,12.0,0.,12.0
1979-07-30 06:04:47.760 ,4,1,0.,12.0,0.,12.0,0.,12.0,0.,12.0
1979-07-30 06:04:59.760 ,4,1,0.,12.0,0.,12.0,0.,12.0,0.,12.0
1979-07-30 06:05:11.760 ,0,1,0.,12.0,0.,12.0,0.,12.0,0.,12.0
1979-07-30 06:05:23.760 ,0,1,0.,12.0,0.,12.0,0.,12.0,0.,12.0
1979-07-30 06:05:35.760 ,0,0,0.,12.0,0.,12.0,0.,12.0,0.,12.0
1979-07-30 06:05:47.760 ,0,0,0.,12.0,0.,12.0,0.,12.0,0.,12.0
1979-07-30 06:05:59.760 ,0,0,0.,12.0,0.,12.0,0.,12.0,0.,12.0
1979-07-30 06:06:11.760 ,0,0,0.,12.0,0.,12.0,0.,12.0,0.,12.0
1979-07-30 06:06:23.760 ,5,1,0.,12.0,0.,12.0,0.,12.0,0.,12.0
1979-07-30 06:06:35.760 ,5,1,0.,12.0,0.,12.0,0.,12.0,0.,12.0
1979-07-30 06:06:47.760 ,5,0,0.,12.0,0.,12.0,0.,12.0,0.,12.0
1979-07-30 06:06:59.760 ,5,0,0.,12.0,0.,12.0,0.,12.0,0.,12.0
1979-07-30 06:07:11.760 ,4,1,0.,12.0,0.,12.0,0.,12.0,0.,12.0
1979-07-30 06:07:23.760 ,4,1,0.,12.0,0.,12.0,0.,12.0,0.,12.0
1979-07-30 06:07:35.760 ,4,0,0.,12.0,0.,12.0,0.,12.0,0.,12.0
1979-07-30 06:07:47.760 ,4,0,0.,12.0,0.,12.0,0.,12.0,0.,12.0
1979-07-30 06:07:59.760 ,3,1,0.,12.0,0.,12.0,0.,12.0,0.,12.0
1979-07-30 06:08:11.760 ,3,1,0.,12.0,0.,12.0,0.,12.0,0.,12.0
1979-07-30 06:08:23.760 ,3,0,0.,12.0,0.,12.0,0.,12.0,0.,12.0
1979-07-30 06:08:35.760 ,3,0,0.,12.0,0.,12.0,0.,12.0,0.,12.0
1979-07-30 06:08:47.760 ,2,1,0.,12.0,0.,12.0,0.,12.0,0.,12.0
1979-07-30 06:08:59.760 ,2,1,0.,12.0,0.,12.0,0.,12.0,0.,12.0
1979-07-30 06:09:11.760 ,2,0,0.,12.0,0.,12.0,0.,12.0,0.,12.0
1979-07-30 06:09:23.760 ,2,0,0.,12.0,0.,12.0,0.,12.0,0.,12.0
1979-07-30 06:09:35.760 ,1,1,0.,12.0,0.,12.0,0.,12.0,0.,12.0
1979-07-30 06:09:47.760 ,1,1,0.,12.0,0.,12.0,0.,12.0,0.,12.0
1979-07-30 06:09:59.760 ,1,0,0.,12.0,0.,12.0,0.,12.0,0.,12.0
1979-07-30 06:10:11.760 ,1,0,0.,12.0,0.,12.0,0.,12.0,0.,12.0
1979-07-30 06:10:23.760 ,0,1,0.,12.0,0.,12.0,0.,12.0,0.,12.0
1979-07-30 06:10:35.760 ,0,1,0.,12.0,0.,12.0,0.,12.0,0.,12.0
1979-07-30 06:10:47.760 ,0,0,0.,12.0,0.,12.0,0.,12.0,0.,12.0
1979-07-30 06:10:59.760 ,0,0,0.,12.0,0.,12.0,0.,12.0,0.,12.0
1979-07-30 06:11:11.760 ,0,1,0.,12.0,0.,12.0,0.,12.0,0.,12.0
1979-07-30 06:11:23.760 ,0,1,0.,12.0,0.,12.0,0.,12.0,0.,12.0
1979-07-30 06:11:35.760 ,0,0,0.,12.0,0.,12.0,0.,12.0,0.,12.0
1979-07-30 06:11:47.760 ,0,0,0.,12.0,0.,12.0,0.,12.0,0.,12.0
1979-07-30 06:11:59.760 ,1,1,0.,12.0,0.,12.0,0.,12.0,0.,12.0
1979-07-30 06:12:11.760 ,1,1,0.,12.0,0.,12.0,0.,12.0,0.,12.0
1979-07-30 06:12:23.760 ,1,0,0.,12.0,0.,12.0,0.,12.0,0.,12.0
1979-07-30 06:12:35.760 ,1,0,0.,12.0,0.,12.0,0.,12.0,0.,12.0
1979-07-30 06:12:47.760 ,2,1,0.,12.0,0.,12.0,0.,12.0,0.,12.0
1979-07-30 06:12:59.760 ,2,1,0.,12.0,0.,12.0,0.,12.0,0.,12.0
1979-07-30 06:13:11.760 ,2,0,0.,12.0,0.,12.0,0.,12.0,0.,12.0
1979-07-30 06:13:23.760 ,2,0,0.,12.0,0.,12.0,0.,12.0,0.,12.0
1979-07-30 06:13:35.760 ,3,1,0.,12.0,0.,12.0,0.,12.0,0.,12.0
1979-07-30 06:13:47.760 ,3,1,0.,12.0,0.,12.0,0.,12.0,0.,12.0
1979-07-30 06:13:59.760 ,3,0,0.,12.0,0.,12.0,0.,12.0,0.,12.0
1979-07-30 06:14:11.760 ,3,0,0.,12.0,0.,12.0,0.,12.0,0.,12.0
1979-07-30 06:14:23.760 ,4,1,0.,12.0,0.,12.0,0.,12.0,0.,12.0
1979-07-30 06:14:35.760 ,4,1,0.,12.0,0.,12.0,0.,12.0,0.,12.0
1979-07-30 06:14:47.760 ,4,0,0.,12.0,0.,12.0,0.,12.0,0.,12.0
1979-07-30 06:14:59.760 ,4,0,0.,12.0,0.,12.0,0.,12.0,0.,12.0
1979-07-30 06:15:11.760 ,5,1,0.,12.0,0.,12.0,0.,12.0,1.,12.0
1979-07-30 06:15:23.760 ,5,1,0.,12.0,0.,12.0,0.,12.0,0.,12.0
1979-07-30 06:15:35.760 ,5,0,0.,12.0,0.,12.0,0.,12.0,0.,12.0
1979-07-30 06:15:47.760 ,5,0,0.,12.0,0.,12.0,0.,12.0,0.,12.0
1979-07-30 06:15:59.760 ,6,1,0.,12.0,0.,12.0,0.,12.0,0.,12.0
1979-07-30 06:16:11.760 ,6,1,0.,12.0,0.,12.0,0.,12.0,0.,12.0
1979-07-30 06:16:23.760 ,6,0,0.,12.0,0.,12.0,0.,12.0,0.,12.0
1979-07-30 06:16:35.760 ,6,0,0.,12.0,0.,12.0,0.,12.0,0.,12.0
1979-07-30 06:16:47.760 ,7,1,0.,12.0,0.,12.0,0.,12.0,0.,12.0
1979-07-30 06:16:59.760 ,7,1,0.,12.0,0.,12.0,0.,12.0,0.,12.0
1979-07-30 06:17:11.760 ,7,0,0.,12.0,0.,12.0,0.,12.0,0.,12.0
1979-07-30 06:17:23.760 ,7,0,0.,12.0,0.,12.0,0.,12.0,0.,12.0
1979-07-30 06:17:35.760 ,7,1,0.,12.0,0.,12.0,0.,12.0,0.,12.0
1979-07-30 06:17:47.760 ,7,1,0.,12.0,0.,12.0,0.,12.0,0.,12.0
1979-07-30 06:17:59.760 ,7,0,0.,12.0,0.,12.0,0.,12.0,0.,12.0
1979-07-30 06:18:11.760 ,7,0,0.,12.0,0.,12.0,0.,12.0,0.,12.0
1979-07-30 06:18:23.760 ,6,1,0.,12.0,0.,12.0,0.,12.0,0.,12.0
1979-07-30 06:18:35.760 ,6,1,0.,12.0,0.,12.0,0.,12.0,0.,12.0
1979-07-30 06:18:47.760 ,6,0,0.,12.0,0.,12.0,0.,12.0,0.,12.0
1979-07-30 06:18:59.760 ,6,0,0.,12.0,0.,12.0,0.,12.0,0.,12.0
1979-07-30 06:19:11.760 ,5,1,0.,12.0,0.,12.0,0.,12.0,0.,12.0
1979-07-30 06:19:23.760 ,5,1,0.,12.0,0.,12.0,0.,12.0,0.,12.0
1979-07-30 06:19:35.760 ,5,0,0.,12.0,0.,12.0,0.,12.0,0.,12.0
1979-07-30 06:19:47.760 ,5,0,0.,12.0,0.,12.0,0.,12.0,0.,12.0
1979-07-30 06:19:59.760 ,4,1,0.,12.0,0.,12.0,0.,12.0,0.,12.0
1979-07-30 06:20:11.760 ,4,1,0.,12.0,0.,12.0,0.,12.0,0.,12.0
1979-07-30 06:20:23.760 ,4,0,0.,12.0,0.,12.0,0.,12.0,0.,12.0
1979-07-30 06:20:35.760 ,4,0,0.,12.0,0.,12.0,0.,12.0,0.,12.0
1979-07-30 06:20:47.760 ,3,1,0.,12.0,0.,12.0,0.,12.0,0.,12.0
1979-07-30 06:20:59.760 ,3,1,0.,12.0,0.,12.0,0.,12.0,0.,12.0
1979-07-30 06:21:11.760 ,3,0,0.,12.0,0.,12.0,0.,12.0,0.,12.0
1979-07-30 06:21:23.760 ,3,0,0.,12.0,0.,12.0,0.,12.0,0.,12.0
1979-07-30 06:21:35.760 ,2,1,0.,12.0,0.,12.0,0.,12.0,0.,12.0
1979-07-30 06:21:47.760 ,2,1,0.,12.0,0.,12.0,0.,12.0,0.,12.0
1979-07-30 06:21:59.760 ,2,0,0.,12.0,0.,12.0,0.,12.0,0.,12.0
1979-07-30 06:22:11.760 ,2,0,0.,12.0,0.,12.0,0.,12.0,0.,12.0
1979-07-30 06:22:23.760 ,1,1,0.,12.0,0.,12.0,0.,12.0,0.,12.0
1979-07-30 06:22:35.760 ,1,1,0.,12.0,0.,12.0,0.,12.0,0.,12.0
1979-07-30 06:22:47.760 ,1,0,0.,12.0,0.,12.0,0.,12.0,0.,12.0
1979-07-30 06:22:59.760 ,1,0,0.,12.0,0.,12.0,0.,12.0,0.,12.0
1979-07-30 06:23:11.760 ,0,1,0.,12.0,0.,12.0,0.,12.0,0.,12.0
1979-07-30 06:23:23.760 ,0,1,0.,12.0,0.,12.0,0.,12.0,0.,12.0
1979-07-30 06:23:35.760 ,0,0,0.,12.0,0.,12.0,0.,12.0,0.,12.0
1979-07-30 06:23:47.760 ,0,0,0.,12.0,0.,12.0,0.,12.0,0.,12.0
1979-07-30 06:23:59.760 ,0,1,0.,12.0,0.,12.0,0.,12.0,0.,12.0
1979-07-30 06:24:11.760 ,0,1,0.,12.0,0.,12.0,0.,12.0,0.,12.0
1979-07-30 06:24:23.760 ,0,0,0.,12.0,0.,12.0,0.,12.0,0.,12.0
1979-07-30 06:24:35.760 ,0,0,0.,12.0,0.,12.0,0.,12.0,0.,12.0
1979-07-30 06:24:47.760 ,1,1,0.,12.0,0.,12.0,0.,12.0,0.,12.0
1979-07-30 06:24:59.760 ,1,1,0.,12.0,0.,12.0,0.,12.0,0.,12.0
1979-07-30 06:25:11.760 ,1,0,0.,12.0,0.,12.0,0.,12.0,0.,12.0
1979-07-30 06:25:23.760 ,1,0,0.,12.0,0.,12.0,0.,12.0,0.,12.0
1979-07-30 06:25:35.760 ,2,1,0.,12.0,0.,12.0,0.,12.0,0.,12.0
1979-07-30 06:25:47.760 ,2,1,0.,12.0,0.,12.0,0.,12.0,0.,12.0
1979-07-30 06:25:59.760 ,2,0,0.,12.0,0.,12.0,0.,12.0,0.,12.0
1979-07-30 06:26:11.760 ,2,0,0.,12.0,0.,12.0,0.,12.0,0.,12.0
1979-07-30 06:26:23.760 ,3,1,0.,12.0,0.,12.0,0.,12.0,0.,12.0
1979-07-30 06:26:35.760 ,3,1,0.,12.0,0.,12.0,0.,12.0,0.,12.0
1979-07-30 06:26:47.760 ,3,0,0.,12.0,0.,12.0,0.,12.0,0.,12.0
1979-07-30 06:26:59.760 ,3,0,0.,12.0,0.,12.0,0.,12.0,0.,12.0
1979-07-30 06:27:11.760 ,4,1,0.,12.0,0.,12.0,0.,12.0,0.,12.0
1979-07-30 06:27:23.760 ,4,1,0.,12.0,0.,12.0,0.,12.0,0.,12.0
1979-07-30 06:27:35.760 ,4,0,0.,12.0,0.,12.0,0.,12.0,0.,12.0
1979-07-30 06:27:47.760 ,4,0,0.,12.0,0.,12.0,0.,12.0,0.,12.0
1979-07-30 06:27:59.760 ,5,1,0.,12.0,0.,12.0,0.,12.0,0.,12.0
1979-07-30 06:28:11.760 ,5,1,0.,12.0,0.,12.0,0.,12.0,0.,12.0
1979-07-30 06:28:23.760 ,5,0,0.,12.0,0.,12.0,0.,12.0,0.,12.0
1979-07-30 06:28:35.760 ,5,0,0.,12.0,0.,12.0,0.,12.0,0.,12.0
1979-07-30 06:28:47.760 ,6,1,0.,12.0,0.,12.0,0.,12.0,0.,12.0
1979-07-30 06:28:59.760 ,6,1,0.,12.0,0.,12.0,0.,12.0,0.,12.0
1979-07-30 06:29:11.760 ,6,0,0.,12.0,0.,12.0,0.,12.0,0.,12.0
1979-07-30 06:29:23.760 ,6,0,0.,12.0,0.,12.0,0.,12.0,0.,12.0
1979-07-30 06:29:35.750 ,7,1,0.,12.0,0.,12.0,0.,12.0,0.,12.0
1979-07-30 06:29:47.750 ,7,1,0.,12.0,0.,12.0,0.,12.0,0.,12.0
1979-07-30 06:29:59.750 ,7,0,0.,12.0,0.,12.0,0.,12.0,0.,12.0
1979-07-30 06:30:11.750 ,7,0,0.,12.0,0.,12.0,0.,12.0,0.,12.0
1979-07-30 06:30:23.750 ,7,1,0.,12.0,0.,12.0,0.,12.0,0.,12.0
1979-07-30 06:30:35.750 ,7,1,0.,12.0,0.,12.0,0.,12.0,0.,12.0
1979-07-30 06:30:47.750 ,7,0,0.,12.0,0.,12.0,0.,12.0,0.,12.0
1979-07-30 06:30:59.750 ,7,0,0.,12.0,0.,12.0,0.,12.0,0.,12.0
1979-07-30 06:31:11.750 ,6,1,0.,12.0,0.,12.0,0.,12.0,0.,12.0
1979-07-30 06:31:23.750 ,6,1,0.,12.0,0.,12.0,0.,12.0,0.,12.0
1979-07-30 06:31:35.750 ,6,0,0.,12.0,0.,12.0,0.,12.0,0.,12.0
1979-07-30 06:31:47.750 ,6,0,0.,12.0,0.,12.0,0.,12.0,0.,12.0
1979-07-30 06:31:59.750 ,5,1,0.,12.0,0.,12.0,0.,12.0,0.,12.0
1979-07-30 06:32:11.750 ,5,1,0.,12.0,0.,12.0,0.,12.0,0.,12.0
1979-07-30 06:32:23.750 ,5,0,0.,12.0,0.,12.0,0.,12.0,0.,12.0
1979-07-30 06:32:35.750 ,5,0,0.,12.0,0.,12.0,0.,12.0,0.,12.0
1979-07-30 06:32:47.750 ,4,1,0.,12.0,0.,12.0,0.,12.0,0.,12.0
1979-07-30 06:32:59.750 ,4,1,0.,12.0,0.,12.0,0.,12.0,0.,12.0
1979-07-30 06:33:11.750 ,4,0,0.,12.0,0.,12.0,0.,12.0,0.,12.0
1979-07-30 06:33:23.750 ,4,0,0.,12.0,0.,12.0,0.,12.0,0.,12.0
1979-07-30 06:33:35.750 ,3,1,0.,12.0,0.,12.0,0.,12.0,0.,12.0
1979-07-30 06:33:47.750 ,3,1,0.,12.0,0.,12.0,0.,12.0,0.,12.0
1979-07-30 06:33:59.750 ,3,0,0.,12.0,0.,12.0,0.,12.0,0.,12.0
1979-07-30 06:34:11.750 ,3,0,0.,12.0,0.,12.0,0.,12.0,0.,12.0
1979-07-30 06:34:23.750 ,2,1,0.,12.0,0.,12.0,0.,12.0,0.,12.0
1979-07-30 06:34:35.750 ,2,1,0.,12.0,0.,12.0,0.,12.0,0.,12.0
1979-07-30 06:34:47.750 ,2,0,0.,12.0,0.,12.0,0.,12.0,0.,12.0
1979-07-30 06:34:59.750 ,2,0,0.,12.0,0.,12.0,0.,12.0,0.,12.0
1979-07-30 06:35:11.750 ,1,1,0.,12.0,0.,12.0,0.,12.0,0.,12.0
1979-07-30 06:35:23.750 ,1,1,0.,12.0,0.,12.0,0.,12.0,0.,12.0
1979-07-30 06:35:35.750 ,1,0,0.,12.0,0.,12.0,0.,12.0,0.,12.0
1979-07-30 06:35:47.750 ,1,0,0.,12.0,0.,12.0,0.,12.0,0.,12.0
1979-07-30 06:35:59.750 ,0,1,0.,12.0,0.,12.0,0.,12.0,0.,12.0
1979-07-30 06:36:11.750 ,0,1,0.,12.0,0.,12.0,0.,12.0,0.,12.0
1979-07-30 06:36:23.750 ,0,0,0.,12.0,0.,12.0,0.,12.0,0.,12.0
1979-07-30 06:36:35.750 ,0,0,0.,12.0,0.,12.0,0.,12.0,0.,12.0
1979-07-30 06:36:47.750 ,0,1,0.,12.0,0.,12.0,0.,12.0,0.,12.0
1979-07-30 06:36:59.750 ,0,1,0.,12.0,0.,12.0,0.,12.0,0.,12.0
1979-07-30 06:37:11.750 ,0,0,0.,12.0,0.,12.0,0.,12.0,0.,12.0
1979-07-30 06:37:23.750 ,0,0,0.,12.0,0.,12.0,0.,12.0,0.,12.0
1979-07-30 06:37:35.750 ,1,1,0.,12.0,0.,12.0,0.,12.0,0.,12.0
1979-07-30 06:37:47.750 ,1,1,0.,12.0,0.,12.0,0.,12.0,0.,12.0
1979-07-30 06:37:59.750 ,0,0,0.,12.0,0.,12.0,0.,12.0,0.,12.0
1979-07-30 06:38:11.750 ,0,0,0.,12.0,0.,12.0,0.,12.0,0.,12.0
1979-07-30 06:38:23.750 ,2,1,0.,12.0,0.,12.0,0.,12.0,0.,12.0
1979-07-30 06:38:35.750 ,2,1,0.,12.0,0.,12.0,0.,12.0,0.,12.0
1979-07-30 06:38:47.750 ,2,0,0.,12.0,0.,12.0,0.,12.0,0.,12.0
1979-07-30 06:38:59.750 ,2,0,0.,12.0,0.,12.0,0.,12.0,0.,12.0
1979-07-30 06:39:11.750 ,0,0,0.,12.0,0.,12.0,0.,12.0,0.,12.0
1979-07-30 06:39:23.750 ,0,0,,0,,0,,0,,0
1979-07-30 06:39:35.750 ,0,0,,0,,0,,0,,0
1979-07-30 06:39:47.750 ,0,0,,0,,0,,0,,0
1979-07-30 06:39:35.750 ,3,0,0.,12.0,0.,12.0,0.,12.0,0.,12.0
1979-07-30 06:39:47.750 ,3,0,0.,12.0,0.,12.0,0.,12.0,0.,12.0
1979-07-30 06:39:59.750 ,4,1,0.,12.0,0.,12.0,0.,12.0,0.,12.0
1979-07-30 06:40:11.750 ,4,1,0.,12.0,0.,12.0,0.,12.0,0.,12.0
1979-07-30 06:40:23.750 ,4,0,0.,12.0,0.,12.0,0.,12.0,0.,12.0
1979-07-30 06:40:35.750 ,4,0,0.,12.0,0.,12.0,0.,12.0,0.,12.0
1979-07-30 06:40:47.750 ,5,1,0.,12.0,0.,12.0,0.,12.0,0.,12.0
1979-07-30 06:40:59.750 ,5,1,0.,12.0,0.,12.0,0.,12.0,0.,12.0
1979-07-30 06:41:11.750 ,5,0,0.,12.0,0.,12.0,0.,12.0,0.,12.0
1979-07-30 06:41:23.750 ,5,0,0.,12.0,0.,12.0,0.,12.0,0.,12.0
1979-07-30 06:41:35.750 ,6,1,0.,12.0,0.,12.0,0.,12.0,0.,12.0
1979-07-30 06:41:47.750 ,6,1,0.,12.0,0.,12.0,0.,12.0,0.,12.0
1979-07-30 06:41:59.750 ,6,0,0.,12.0,0.,12.0,0.,12.0,0.,12.0
1979-07-30 06:42:11.750 ,6,0,0.,12.0,0.,12.0,0.,12.0,0.,12.0
1979-07-30 06:42:23.750 ,7,0,0.,12.0,0.,12.0,0.,12.0,0.,12.0
1979-07-30 06:42:35.750 ,7,0,0.,12.0,0.,12.0,0.,12.0,0.,12.0
1979-07-30 06:42:47.750 ,7,0,0.,12.0,0.,12.0,0.,12.0,0.,12.0
1979-07-30 06:42:59.750 ,7,0,0.,12.0,0.,12.0,0.,12.0,0.,12.0
1979-07-30 06:43:11.750 ,4,1,0.,12.0,0.,12.0,0.,12.0,0.,12.0
1979-07-30 06:43:23.750 ,4,1,0.,12.0,0.,12.0,0.,12.0,0.,12.0
1979-07-30 06:43:35.750 ,0,1,0.,12.0,0.,12.0,0.,12.0,0.,12.0
1979-07-30 06:43:47.750 ,0,1,0.,12.0,0.,12.0,0.,12.0,0.,12.0
1979-07-30 06:43:59.750 ,3,1,0.,12.0,0.,12.0,0.,12.0,0.,12.0
1979-07-30 06:44:11.750 ,3,1,0.,12.0,0.,12.0,0.,12.0,0.,12.0
1979-07-30 06:44:23.750 ,7,1,0.,12.0,0.,12.0,0.,12.0,0.,12.0
1979-07-30 06:44:35.750 ,7,1,0.,12.0,0.,12.0,0.,12.0,0.,12.0
1979-07-30 06:44:47.750 ,4,1,0.,12.0,0.,12.0,0.,12.0,0.,12.0
1979-07-30 06:44:59.750 ,4,1,0.,12.0,0.,12.0,0.,12.0,0.,12.0
1979-07-30 06:45:11.750 ,0,1,0.,12.0,0.,12.0,0.,12.0,0.,12.0
1979-07-30 06:45:23.750 ,0,1,0.,12.0,0.,12.0,0.,12.0,0.,12.0
1979-07-30 06:45:35.750 ,3,1,0.,12.0,0.,12.0,0.,12.0,0.,12.0
1979-07-30 06:45:47.750 ,3,1,0.,12.0,0.,12.0,0.,12.0,0.,12.0
1979-07-30 06:45:59.750 ,7,1,0.,12.0,0.,12.0,0.,12.0,0.,12.0
1979-07-30 06:46:11.750 ,7,1,0.,12.0,0.,12.0,0.,12.0,0.,12.0
1979-07-30 06:46:23.750 ,4,1,0.,12.0,0.,12.0,0.,12.0,0.,12.0
1979-07-30 06:46:35.750 ,4,1,0.,12.0,0.,12.0,0.,12.0,0.,12.0
1979-07-30 06:46:47.750 ,0,1,0.,12.0,0.,12.0,0.,12.0,0.,12.0
1979-07-30 06:46:59.750 ,0,1,0.,12.0,0.,12.0,0.,12.0,0.,12.0
1979-07-30 06:47:11.750 ,3,1,0.,12.0,0.,12.0,0.,12.0,0.,12.0
1979-07-30 06:47:23.750 ,3,1,0.,12.0,0.,12.0,0.,12.0,0.,12.0
1979-07-30 06:47:35.750 ,7,1,0.,12.0,0.,12.0,0.,12.0,0.,12.0
1979-07-30 06:47:47.750 ,7,1,0.,12.0,0.,12.0,0.,12.0,0.,12.0
1979-07-30 06:47:59.750 ,4,1,0.,12.0,0.,12.0,0.,12.0,0.,12.0
1979-07-30 06:48:11.750 ,4,1,0.,12.0,0.,12.0,0.,12.0,0.,12.0
1979-07-30 06:48:23.750 ,0,1,0.,12.0,0.,12.0,0.,12.0,0.,12.0
1979-07-30 06:48:35.750 ,0,1,0.,12.0,0.,12.0,0.,12.0,0.,12.0
1979-07-30 06:48:47.750 ,3,1,0.,12.0,0.,12.0,0.,12.0,0.,12.0
1979-07-30 06:48:59.750 ,3,1,0.,12.0,0.,12.0,0.,12.0,0.,12.0
1979-07-30 06:49:11.750 ,7,1,0.,12.0,0.,12.0,0.,12.0,0.,12.0
1979-07-30 06:49:23.750 ,7,1,0.,12.0,0.,12.0,0.,12.0,0.,12.0
1979-07-30 06:49:35.750 ,4,1,0.,12.0,0.,12.0,0.,12.0,0.,12.0
1979-07-30 06:49:47.750 ,4,1,0.,12.0,0.,12.0,0.,12.0,0.,12.0
1979-07-30 06:49:59.750 ,0,1,0.,12.0,0.,12.0,0.,12.0,0.,12.0
1979-07-30 06:50:11.750 ,0,1,0.,12.0,0.,12.0,0.,12.0,0.,12.0
1979-07-30 06:50:23.750 ,3,1,0.,12.0,0.,12.0,0.,12.0,0.,12.0
1979-07-30 06:50:35.750 ,3,1,0.,12.0,0.,12.0,0.,12.0,0.,12.0
1979-07-30 06:50:47.750 ,7,1,0.,12.0,0.,12.0,0.,12.0,0.,12.0
1979-07-30 06:50:59.750 ,7,1,0.,12.0,0.,12.0,0.,12.0,0.,12.0
1979-07-30 06:51:11.750 ,4,1,0.,12.0,0.,12.0,0.,12.0,0.,12.0
1979-07-30 06:51:23.750 ,4,1,0.,12.0,0.,12.0,0.,12.0,0.,12.0
1979-07-30 06:51:35.750 ,0,1,0.,12.0,0.,12.0,0.,12.0,0.,12.0
1979-07-30 06:51:47.750 ,0,1,0.,12.0,0.,12.0,0.,12.0,0.,12.0
1979-07-30 06:51:59.750 ,3,1,0.,12.0,0.,12.0,0.,12.0,0.,12.0
1979-07-30 06:52:11.750 ,3,1,0.,12.0,0.,12.0,0.,12.0,0.,12.0
1979-07-30 06:52:23.750 ,7,1,0.,12.0,0.,12.0,0.,12.0,0.,12.0
1979-07-30 06:52:35.750 ,7,1,0.,12.0,0.,12.0,0.,12.0,0.,12.0
1979-07-30 06:52:47.750 ,4,1,0.,12.0,0.,12.0,0.,12.0,0.,12.0
1979-07-30 06:52:59.750 ,4,1,0.,12.0,0.,12.0,0.,12.0,0.,12.0
1979-07-30 06:53:11.750 ,0,1,0.,12.0,0.,12.0,0.,12.0,0.,12.0
1979-07-30 06:53:23.750 ,0,1,0.,12.0,0.,12.0,0.,12.0,0.,12.0
1979-07-30 06:53:35.750 ,0,0,0.,12.0,0.,12.0,0.,12.0,0.,12.0
1979-07-30 06:53:47.750 ,0,0,,0,,0,,0,,0
1979-07-30 06:53:59.750 ,0,0,0.,12.0,0.,12.0,0.,12.0,0.,12.0
1979-07-30 06:54:11.750 ,0,0,0.,12.0,0.,12.0,0.,12.0,0.,12.0
1979-07-30 06:54:23.750 ,5,1,0.,12.0,0.,12.0,0.,12.0,0.,12.0
1979-07-30 06:54:35.750 ,5,1,0.,12.0,0.,12.0,0.,12.0,0.,12.0
1979-07-30 06:54:47.750 ,5,0,0.,12.0,0.,12.0,0.,12.0,0.,12.0
1979-07-30 06:54:59.750 ,5,0,0.,12.0,0.,12.0,0.,12.0,0.,12.0
1979-07-30 06:55:11.750 ,4,1,0.,12.0,0.,12.0,0.,12.0,0.,12.0
1979-07-30 06:55:23.750 ,4,1,0.,12.0,0.,12.0,0.,12.0,0.,12.0
1979-07-30 06:55:35.750 ,4,0,0.,12.0,0.,12.0,0.,12.0,0.,12.0
1979-07-30 06:55:47.750 ,4,0,0.,12.0,0.,12.0,0.,12.0,0.,12.0
1979-07-30 06:55:59.750 ,3,1,0.,12.0,0.,12.0,0.,12.0,0.,12.0
1979-07-30 06:56:11.750 ,3,1,0.,12.0,0.,12.0,0.,12.0,0.,12.0
1979-07-30 06:56:23.750 ,3,0,0.,12.0,0.,12.0,0.,12.0,0.,12.0
1979-07-30 06:56:35.750 ,3,0,0.,12.0,0.,12.0,0.,12.0,0.,12.0
1979-07-30 06:56:47.750 ,2,1,0.,12.0,0.,12.0,0.,12.0,0.,12.0
1979-07-30 06:56:59.750 ,2,1,0.,12.0,0.,12.0,0.,12.0,0.,12.0
1979-07-30 06:57:11.750 ,2,0,0.,12.0,0.,12.0,0.,12.0,0.,12.0
1979-07-30 06:57:23.750 ,2,0,0.,12.0,0.,12.0,0.,12.0,0.,12.0
1979-07-30 06:57:35.750 ,1,1,0.,12.0,0.,12.0,0.,12.0,0.,12.0
1979-07-30 06:57:47.750 ,1,1,0.,12.0,0.,12.0,0.,12.0,0.,12.0
1979-07-30 06:57:59.750 ,1,0,0.,12.0,0.,12.0,0.,12.0,0.,12.0
1979-07-30 06:58:11.750 ,1,0,0.,12.0,0.,12.0,0.,12.0,0.,12.0
1979-07-30 06:58:23.750 ,0,1,0.,12.0,0.,12.0,0.,12.0,0.,12.0
1979-07-30 06:58:35.750 ,0,1,0.,12.0,0.,12.0,0.,12.0,0.,12.0
1979-07-30 06:58:47.750 ,0,0,0.,12.0,0.,12.0,0.,12.0,0.,12.0
1979-07-30 06:58:59.750 ,0,0,0.,12.0,0.,12.0,0.,12.0,0.,12.0
1979-07-30 06:59:11.750 ,0,1,0.,12.0,0.,12.0,0.,12.0,0.,12.0
1979-07-30 06:59:23.750 ,0,1,0.,12.0,0.,12.0,0.,12.0,0.,12.0
1979-07-30 06:59:35.750 ,0,0,0.,12.0,0.,12.0,0.,12.0,0.,12.0
1979-07-30 06:59:47.750 ,0,0,0.,12.0,0.,12.0,0.,12.0,0.,12.0
1979-07-30 06:59:59.750 ,1,1,0.,12.0,0.,12.0,0.,12.0,0.,12.0
1979-07-30 07:00:11.750 ,1,1,0.,12.0,0.,12.0,0.,12.0,0.,12.0
1979-07-30 07:00:23.750 ,1,0,0.,12.0,0.,12.0,0.,12.0,0.,12.0
1979-07-30 07:00:35.750 ,1,0,0.,12.0,0.,12.0,0.,12.0,0.,12.0
1979-07-30 07:00:47.750 ,2,1,0.,12.0,0.,12.0,0.,12.0,0.,12.0
1979-07-30 07:00:59.750 ,2,1,0.,12.0,0.,12.0,0.,12.0,0.,12.0
1979-07-30 07:01:11.750 ,2,0,0.,12.0,0.,12.0,0.,12.0,0.,12.0
1979-07-30 07:01:23.750 ,2,0,0.,12.0,0.,12.0,0.,12.0,0.,12.0
1979-07-30 07:01:35.750 ,3,1,0.,12.0,0.,12.0,0.,12.0,0.,12.0
1979-07-30 07:01:47.750 ,3,1,0.,12.0,0.,12.0,0.,12.0,0.,12.0
1979-07-30 07:01:59.750 ,3,0,0.,12.0,0.,12.0,0.,12.0,0.,12.0
1979-07-30 07:02:11.750 ,3,0,0.,12.0,0.,12.0,0.,12.0,0.,12.0
1979-07-30 07:02:23.750 ,4,1,0.,12.0,0.,12.0,0.,12.0,0.,12.0
1979-07-30 07:02:35.750 ,4,1,0.,12.0,0.,12.0,0.,12.0,0.,12.0
1979-07-30 07:02:47.750 ,4,0,0.,12.0,0.,12.0,0.,12.0,0.,12.0
1979-07-30 07:02:59.750 ,4,0,0.,12.0,0.,12.0,0.,12.0,0.,12.0
1979-07-30 07:03:11.750 ,5,1,0.,12.0,0.,12.0,0.,12.0,0.,12.0
1979-07-30 07:03:23.750 ,5,1,0.,12.0,0.,12.0,0.,12.0,0.,12.0
1979-07-30 07:03:35.750 ,5,0,0.,12.0,0.,12.0,0.,12.0,0.,12.0
1979-07-30 07:03:47.750 ,5,0,0.,12.0,0.,12.0,0.,12.0,0.,12.0
1979-07-30 07:03:59.750 ,6,1,0.,12.0,0.,12.0,0.,12.0,0.,12.0
1979-07-30 07:04:11.750 ,6,1,0.,12.0,0.,12.0,0.,12.0,0.,12.0
1979-07-30 07:04:23.750 ,6,0,0.,12.0,0.,12.0,0.,12.0,0.,12.0
1979-07-30 07:04:35.750 ,6,0,0.,12.0,0.,12.0,0.,12.0,0.,12.0
1979-07-30 07:04:47.750 ,7,1,0.,12.0,0.,12.0,0.,12.0,0.,12.0
1979-07-30 07:04:59.750 ,7,1,0.,12.0,0.,12.0,0.,12.0,0.,12.0
1979-07-30 07:05:11.750 ,7,0,0.,12.0,0.,12.0,0.,12.0,0.,12.0
1979-07-30 07:05:23.750 ,7,0,0.,12.0,0.,12.0,0.,12.0,0.,12.0
1979-07-30 07:05:35.750 ,7,1,0.,12.0,0.,12.0,0.,12.0,0.,12.0
1979-07-30 07:05:47.750 ,7,1,0.,12.0,0.,12.0,0.,12.0,0.,12.0
1979-07-30 07:05:59.750 ,7,0,0.,12.0,0.,12.0,0.,12.0,0.,12.0
1979-07-30 07:06:11.750 ,7,0,0.,12.0,0.,12.0,0.,12.0,0.,12.0
1979-07-30 07:06:23.750 ,6,1,0.,12.0,0.,12.0,0.,12.0,0.,12.0
1979-07-30 07:06:35.750 ,6,1,0.,12.0,0.,12.0,0.,12.0,0.,12.0
1979-07-30 07:06:47.750 ,6,0,0.,12.0,0.,12.0,0.,12.0,0.,12.0
1979-07-30 07:06:59.750 ,6,0,0.,12.0,0.,12.0,0.,12.0,0.,12.0
1979-07-30 07:07:11.750 ,5,1,0.,12.0,0.,12.0,0.,12.0,0.,12.0
1979-07-30 07:07:23.750 ,5,1,0.,12.0,0.,12.0,0.,12.0,0.,12.0
1979-07-30 07:07:35.750 ,5,0,0.,12.0,0.,12.0,0.,12.0,0.,12.0
1979-07-30 07:07:47.750 ,5,0,0.,12.0,0.,12.0,0.,12.0,0.,12.0
1979-07-30 07:07:59.750 ,4,1,0.,12.0,0.,12.0,0.,12.0,0.,12.0
1979-07-30 07:08:11.750 ,4,1,0.,12.0,0.,12.0,0.,12.0,0.,12.0
1979-07-30 07:08:23.750 ,4,0,0.,12.0,0.,12.0,0.,12.0,0.,12.0
1979-07-30 07:08:35.750 ,4,0,0.,12.0,0.,12.0,0.,12.0,0.,12.0
1979-07-30 07:08:47.750 ,3,1,0.,12.0,0.,12.0,0.,12.0,0.,12.0
1979-07-30 07:08:59.750 ,3,1,0.,12.0,0.,12.0,0.,12.0,0.,12.0
1979-07-30 07:09:11.750 ,3,0,0.,12.0,0.,12.0,0.,12.0,0.,12.0
1979-07-30 07:09:23.750 ,3,0,0.,12.0,0.,12.0,0.,12.0,0.,12.0
1979-07-30 07:09:35.750 ,2,1,0.,12.0,0.,12.0,0.,12.0,0.,12.0
1979-07-30 07:09:47.750 ,2,1,0.,12.0,0.,12.0,0.,12.0,0.,12.0
1979-07-30 07:09:59.750 ,2,0,0.,12.0,0.,12.0,0.,12.0,0.,12.0
1979-07-30 07:10:11.750 ,2,0,0.,12.0,0.,12.0,0.,12.0,0.,12.0
1979-07-30 07:10:23.750 ,1,1,0.,12.0,0.,12.0,0.,12.0,0.,12.0
1979-07-30 07:10:35.750 ,1,1,0.,12.0,0.,12.0,0.,12.0,0.,12.0
1979-07-30 07:10:47.750 ,1,0,0.,12.0,0.,12.0,0.,12.0,0.,12.0
1979-07-30 07:10:59.750 ,1,0,0.,12.0,0.,12.0,0.,12.0,0.,12.0
1979-07-30 07:11:11.750 ,0,1,0.,12.0,0.,12.0,0.,12.0,0.,12.0
1979-07-30 07:11:23.750 ,0,1,0.,12.0,0.,12.0,0.,12.0,0.,12.0
1979-07-30 07:11:35.750 ,0,0,0.,12.0,0.,12.0,0.,12.0,0.,12.0
1979-07-30 07:11:47.750 ,0,0,0.,12.0,0.,12.0,0.,12.0,0.,12.0
1979-07-30 07:11:59.750 ,0,1,0.,12.0,0.,12.0,0.,12.0,0.,12.0
1979-07-30 07:12:11.750 ,0,1,0.,12.0,0.,12.0,0.,12.0,0.,12.0
1979-07-30 07:12:23.750 ,0,0,0.,12.0,0.,12.0,0.,12.0,0.,12.0
1979-07-30 07:12:35.750 ,0,0,0.,12.0,0.,12.0,0.,12.0,0.,12.0
1979-07-30 07:12:47.750 ,1,1,0.,12.0,0.,12.0,0.,12.0,0.,12.0
1979-07-30 07:12:59.750 ,1,1,0.,12.0,0.,12.0,0.,12.0,0.,12.0
1979-07-30 07:13:11.750 ,1,0,0.,12.0,0.,12.0,0.,12.0,0.,12.0
1979-07-30 07:13:23.750 ,1,0,0.,12.0,0.,12.0,0.,12.0,0.,12.0
1979-07-30 07:13:35.750 ,2,1,0.,12.0,0.,12.0,0.,12.0,0.,12.0
1979-07-30 07:13:47.750 ,2,1,0.,12.0,0.,12.0,0.,12.0,0.,12.0
1979-07-30 07:13:59.750 ,2,0,0.,12.0,0.,12.0,0.,12.0,0.,12.0
1979-07-30 07:14:11.750 ,2,0,0.,12.0,0.,12.0,0.,12.0,0.,12.0
1979-07-30 07:14:23.750 ,3,1,0.,12.0,0.,12.0,0.,12.0,0.,12.0
1979-07-30 07:14:35.750 ,3,1,0.,12.0,0.,12.0,0.,12.0,0.,12.0
1979-07-30 07:14:47.750 ,3,0,0.,12.0,0.,12.0,0.,12.0,0.,12.0
1979-07-30 07:14:59.750 ,3,0,0.,12.0,0.,12.0,0.,12.0,0.,12.0
1979-07-30 07:15:11.750 ,4,1,0.,12.0,0.,12.0,0.,12.0,0.,12.0
1979-07-30 07:15:23.750 ,4,1,0.,12.0,0.,12.0,0.,12.0,0.,12.0
1979-07-30 07:15:35.750 ,4,0,0.,12.0,0.,12.0,0.,12.0,0.,12.0
1979-07-30 07:15:47.750 ,4,0,0.,12.0,0.,12.0,0.,12.0,0.,12.0
1979-07-30 07:15:59.750 ,5,1,0.,12.0,0.,12.0,0.,12.0,1.,12.0
1979-07-30 07:16:11.750 ,5,1,0.,12.0,0.,12.0,0.,12.0,0.,12.0
1979-07-30 07:16:23.750 ,5,0,0.,12.0,0.,12.0,0.,12.0,0.,12.0
1979-07-30 07:16:35.750 ,5,0,0.,12.0,0.,12.0,0.,12.0,0.,12.0
1979-07-30 07:16:47.750 ,6,1,0.,12.0,0.,12.0,0.,12.0,0.,12.0
1979-07-30 07:16:59.750 ,6,1,0.,12.0,0.,12.0,0.,12.0,0.,12.0
1979-07-30 07:17:11.750 ,6,0,0.,12.0,0.,12.0,0.,12.0,0.,12.0